Weather History for PHLI - June, 2014

Change the Weather History Date:

Monday, June 23, 2014

  Actual Average Record
Temperature  
Mean Temperature 78 °F 79 °F  
Max Temperature 82 °F 84 °F 88 °F (1959)
Min Temperature 73 °F 73 °F 67 °F (1952)
Degree Days  
Heating Degree Days 0 0  
Month to date heating degree days 0 0  
Since 1 June heating degree days 0 0  
Since 1 July heating degree days 0 0  
Cooling Degree Days 13 14  
Month to date cooling degree days 288 297  
Year to date cooling degree days 1509 1536  
Since 1 June cooling degree days 288 297  
Growing Degree Days 28 (Base 50)    
Moisture  
Dew Point 68 °F    
Average Humidity 78    
Maximum Humidity 93    
Minimum Humidity 63    
Precipitation  
Precipitation T in 0.06 in 0.40 in (1978)
Month to date precipitation 3.02 1.22  
Year to date precipitation 18.81 17.06  
Snow  
Snow 0.00 in - - ()
Month to date snowfall 0.0  
Since 1 June snowfall 0.0  
Since 1 July snowfall 0.0  
Snow Depth 0.00 in    
Sea Level Pressure  
Sea Level Pressure 30.05 in    
Wind  
Wind Speed 14 mph (NE)    
Max Wind Speed 22 mph    
Max Gust Speed 26 mph    
Visibility 10 miles    
Events Rain    
T = Trace of Precipitation, MM = Missing Value Source: NWS Daily Summary

Daily Weather History Graph

Daily Weather History Graph

Search for Another Location

Airport or City:

Trip Planner

Search our weather history database for the weather conditions in past years. The results will help you decide how hot, cold, wet, or windy it might be!

Date:

Astronomy

Jun. 23, 2014 Rise Set
Actual Time 5:55 AM HST 7:23 PM HST
Civil Twilight 5:30 AM HST 7:48 PM HST
Nautical Twilight 5:00 AM HST 8:18 PM HST
Astronomical Twilight 4:29 AM HST 8:49 PM HST
Moon 3:11 AM HST (6/23) 4:30 PM HST (6/23)
Length of Visible Light 14h 18m
Length of Day
13h 28m
Waning Crescent, 11% of the Moon is Illuminated
Jun 23
Waning Crescent
Jun 26
New
Jul 5
First Quarter
Jul 12
Full
Jul 18
Last Quarter

Hourly Weather History & Observations

Time (HST) Temp. Heat Index Dew Point Humidity Pressure Visibility Wind Dir Wind Speed Gust Speed Precip Events Conditions
12:53 AM 75.0 °F - 70.0 °F 84% 30.04 in 10.0 mi NE 12.7 mph - N/A   Mostly Cloudy
1:53 AM 75.9 °F - 70.0 °F 82% 30.02 in 10.0 mi ENE 15.0 mph - N/A   Mostly Cloudy
2:53 AM 73.9 °F - 69.1 °F 85% 30.01 in 10.0 mi NE 15.0 mph - N/A   Mostly Cloudy
3:53 AM 75.0 °F - 70.0 °F 84% 30.01 in 10.0 mi ENE 15.0 mph - N/A   Mostly Cloudy
4:04 AM 75.2 °F - 69.8 °F 83% 30.02 in 10.0 mi NE 17.3 mph 23.0 mph N/A   Mostly Cloudy
4:18 AM 75.2 °F - 69.8 °F 83% 30.02 in 10.0 mi ENE 18.4 mph - N/A   Scattered Clouds
4:27 AM 73.4 °F - 68.0 °F 83% 30.03 in 10.0 mi East 17.3 mph - 0.00 in Rain Light Rain
4:36 AM 73.4 °F - 69.8 °F 88% 30.03 in 7.0 mi ENE 13.8 mph - 0.00 in Rain Light Rain
4:53 AM 73.9 °F - 71.1 °F 91% 30.02 in 10.0 mi NE 10.4 mph - 0.00 in   Overcast
5:40 AM 73.4 °F - 69.8 °F 88% 30.04 in 10.0 mi ENE 19.6 mph 23.0 mph N/A   Scattered Clouds
5:53 AM 73.0 °F - 66.9 °F 81% 30.04 in 10.0 mi ENE 12.7 mph - N/A   Mostly Cloudy
6:32 AM 73.4 °F - 69.8 °F 88% 30.05 in 10.0 mi East 19.6 mph 26.5 mph N/A   Overcast
6:48 AM 73.4 °F - 69.8 °F 88% 30.06 in 8.0 mi East 16.1 mph - 0.00 in Rain Light Rain
6:53 AM 73.0 °F - 69.1 °F 87% 30.05 in 10.0 mi ENE 16.1 mph - 0.00 in Rain Light Rain
7:53 AM 75.9 °F - 69.1 °F 79% 30.06 in 10.0 mi ENE 13.8 mph - N/A   Overcast
8:53 AM 78.1 °F - 69.1 °F 74% 30.07 in 10.0 mi ENE 15.0 mph - N/A   Overcast
10:53 AM 81.0 °F 83.8 °F 68.0 °F 65% 30.08 in 10.0 mi NE 11.5 mph - N/A   Scattered Clouds
11:00 AM 80.6 °F 83.9 °F 69.8 °F 70% 30.08 in 10.0 mi ENE 12.7 mph - N/A   Mostly Cloudy
11:07 AM 80.6 °F 83.9 °F 69.8 °F 70% 30.08 in 10.0 mi ENE 12.7 mph - N/A   Scattered Clouds
11:53 AM 81.0 °F 84.1 °F 69.1 °F 67% 30.07 in 10.0 mi ENE 12.7 mph - N/A   Scattered Clouds
12:53 PM 82.0 °F 84.9 °F 68.0 °F 62% 30.06 in 10.0 mi ENE 12.7 mph - N/A   Partly Cloudy
1:53 PM 82.0 °F 84.9 °F 68.0 °F 62% 30.05 in 10.0 mi ENE 15.0 mph - N/A   Partly Cloudy
2:23 PM 82.4 °F 85.4 °F 68.0 °F 62% 30.06 in 10.0 mi NE 15.0 mph - N/A   Mostly Cloudy
2:31 PM 80.6 °F 83.2 °F 68.0 °F 65% 30.06 in 10.0 mi NE 15.0 mph - N/A   Scattered Clouds
2:53 PM 80.1 °F 82.7 °F 68.0 °F 67% 30.04 in 10.0 mi NE 15.0 mph - N/A   Mostly Cloudy
3:45 PM 80.6 °F 83.9 °F 69.8 °F 70% 30.05 in 10.0 mi NE 15.0 mph - N/A   Mostly Cloudy
3:53 PM 81.0 °F 84.1 °F 69.1 °F 67% 30.04 in 10.0 mi NE 13.8 mph - N/A   Mostly Cloudy
4:06 PM 80.6 °F 82.7 °F 66.2 °F 61% 30.04 in 10.0 mi NE 13.8 mph - N/A   Scattered Clouds
4:53 PM 79.0 °F - 66.9 °F 66% 30.03 in 10.0 mi NNE 17.3 mph - N/A   Mostly Cloudy
5:18 PM 78.8 °F - 68.0 °F 69% 30.04 in 10.0 mi NE 15.0 mph - N/A   Mostly Cloudy
5:53 PM 77.0 °F - 66.9 °F 71% 30.04 in 10.0 mi NE 13.8 mph - 0.00 in   Overcast
6:53 PM 75.9 °F - 66.9 °F 74% 30.05 in 10.0 mi NE 15.0 mph - N/A   Mostly Cloudy
7:53 PM 75.9 °F - 66.0 °F 71% 30.07 in 10.0 mi NE 17.3 mph - N/A   Partly Cloudy
8:53 PM 75.0 °F - 64.9 °F 71% 30.09 in 10.0 mi NE 16.1 mph - N/A   Partly Cloudy
9:53 PM 75.9 °F - 66.0 °F 71% 30.09 in 10.0 mi NE 17.3 mph - N/A   Clear
10:53 PM 75.9 °F - 66.9 °F 74% 30.10 in 10.0 mi NE 18.4 mph - N/A   Scattered Clouds
11:53 PM 75.0 °F - 66.0 °F 73% 30.10 in 10.0 mi NE 15.0 mph - N/A   Scattered Clouds